Home > Weather > Wilmington > Past weeks

Flag for USA Past Weather in Wilmington, Delaware, USA — Yesterday and Last 2 Weeks

Now
72 °F

Sunny.


Feels Like: 73 °F
Forecast: 68 / 83 °F
Wind: 7 mph from North

Location: New Castle County Airport

Current Time: Jun 29, 2016 at 8:53:50 AM

Latest Report: Jun 29, 2016 at 7:51 AM


Visibility: 10 mi

Pressure: 29.91 "Hg

Humidity: 78%

Dew Point: 65 °F

Location of WilmingtonLocation

Past Weather in Wilmington — Graph

°F

Wilmington Temperature Yesterday

Maximum temperature yesterday: 82 °F (at 4:51 PM)
Minimum temperature yesterday: 70 °F (at 12:51 AM)
Average temperature yesterday: 75 °F

High & Low Weather Summary for the Past Weeks

 TemperatureHumidityPressure
High89 °F (Jun 19, 1:51 PM)94% (Jun 16, 8:00 AM)30.34 "Hg (Jun 16, 8:00 AM)
Low57 °F (Jun 15, 5:51 AM)31% (Jun 14, 3:51 PM)29.72 "Hg (Jun 16, 5:51 PM)
Average73 °F68%30.01 "Hg
* Reported Jun 14 6:51 AM — Jun 29 6:51 AM, Wilmington, Weather by CustomWeather, © 2016

Note: Actual official high and low records may vary slightly from our data, if they occured in-between our weather recording intervals... More about our weather records

Advertising

Wilmington Weather History for the Previous 24 Hours

Scroll right to see more
 ConditionsComfort  
Time TempWeatherWind HumidityBarometerVisibility
6:51 AM
Wed, Jun 29
69 °FSunny.6 mph90%29.90 "Hg7 mi
5:51 AM67 °FFog.9 mph93%29.88 "Hg5 mi
4:51 AM67 °FClear.7 mph90%29.87 "Hg7 mi
3:51 AM68 °FPassing clouds.6 mph90%29.87 "Hg10 mi
2:51 AM71 °FPassing clouds.No wind84%29.87 "Hg10 mi
1:51 AM70 °FPassing clouds.5 mph90%29.86 "Hg10 mi
12:51 AM72 °FPassing clouds.6 mph87%29.88 "Hg10 mi
11:51 PM
Tue, Jun 28
73 °FPassing clouds.No wind88%29.88 "Hg10 mi
10:51 PM71 °FClear.6 mph93%29.88 "Hg10 mi
9:51 PM74 °FOvercast.7 mph88%29.87 "Hg10 mi
8:51 PM76 °FBroken clouds.No wind88%29.85 "Hg10 mi
7:51 PM77 °FLight rain. Mostly cloudy.10 mph82%29.85 "Hg10 mi
6:51 PM78 °FLight rain. Sunny.13 mph82%29.87 "Hg10 mi
5:51 PM80 °FPassing clouds.10 mph76%29.87 "Hg10 mi
4:51 PM82 °FSunny.14 mph74%29.85 "Hg10 mi
3:58 PM81 °FSunny.15 mph79%29.87 "Hg10 mi
3:51 PM80 °FPartly sunny.14 mph81%29.87 "Hg10 mi
2:51 PM79 °FPartly sunny.12 mph82%29.89 "Hg10 mi
1:51 PM81 °FSunny.9 mph77%29.90 "Hg10 mi
8:54 AM73 °FFog.6 mph94%29.95 "Hg2 mi
Weather by CustomWeather, © 2016

See weather overviewHow to use our weather pages